Hourly Data Report for October 13, 2015

All times are specified in Local Standard Time (LST). Add 1 hour to adjust for Daylight Saving Time where and when it is observed.

CORAL HARBOUR A
NUNAVUT

64°11'36.000" N
83°21'34.000" W
62.20 m
2301002
71915
YZS

Download Data

Hourly Data (October 2015)
Hourly Data Report for October 13, 2015
Temp Definition
°C
Dew Point Temp Definition
°C
Rel Hum Definition
%
Wind Dir Definition
10's deg

Wind Spd Definition
km/h
Visibility Definition
km
Stn Press Definition
kPa
Hmdx Definition


Wind Chill Definition


Weather Definition


TIME
00:00 Legend Double Dagger -6.7 -9.0 84 27 3 19.3 99.22   -8 Snow
01:00 Legend Double Dagger -7.2 -9.2 86 36 1 19.3 99.18   -8 Snow
02:00 Legend Double Dagger -7.7 -9.5 87 6 8 19.3 99.13   -12 Snow
03:00 Legend Double Dagger -7.2 -8.6 90 35 5 9.7 99.07   -10 Snow
04:00 Legend Double Dagger -7.4 -8.6 91 31 5 3.2 99.08   -10 Snow
05:00 Legend Double Dagger -7.9 -8.8 93 26 8 4.0 99.07   -12 Snow
06:00 Legend Double Dagger -7.7 -9.2 89 34 12 16.1 99.08   -13 Snow
07:00 Legend Double Dagger -10.8 -12.9 85 1 13 24.1 99.09   -17 Snow
08:00 Legend Double Dagger -10.3 -11.9 88 31 8 24.1 99.13   -15 LegendNANA
09:00 Legend Double Dagger -10.8 -13.0 84 33 13 24.1 99.17   -17 LegendNANA
10:00 Legend Double Dagger -11.2 -13.1 86 30 7 24.1 99.19   -15 Mainly Clear
11:00 Legend Double Dagger -7.1 -10.2 79 31 21 24.1 99.21   -14 LegendNANA
12:00 Legend Double Dagger -6.8 -10.5 75 33 30 24.1 99.26   -15 LegendNANA
13:00 Legend Double Dagger -6.5 -10.4 74 32 27 24.1 99.29   -15 Mainly Clear
14:00 Legend Double Dagger -6.9 -10.6 75 30 22 24.1 99.36   -14 LegendNANA
15:00 Legend Double Dagger -7.1 -10.6 76 30 19 24.1 99.38   -14 LegendNANA
16:00 Legend Double Dagger -7.8 -11.0 78 30 25 24.1 99.39   -16 Mostly Cloudy
17:00 Legend Double Dagger -8.9 -11.9 79 31 27 24.1 99.44   -18 LegendNANA
18:00 Legend Double Dagger -9.9 -12.6 81 30 15 24.1 99.49   -17 LegendNANA
19:00 Legend Double Dagger -7.7 -11.7 73 31 22 24.1 99.50   -15 Mostly Cloudy
20:00 Legend Double Dagger -7.8 -10.8 79 28 14 24.1 99.53   -14 Snow
21:00 Legend Double Dagger -7.5 -10.7 78 28 18 24.1 99.53   -14 Snow
22:00 Legend Double Dagger -10.6 -13.1 82 27 9 24.1 99.51   -16 Mainly Clear
23:00 Legend Double Dagger -9.3 -11.7 83 25 14 24.1 99.48   -16 LegendNANA

Notes on Data Quality.

Legend

  • E = Estimated
  • M = Missing
  • NA = Not Available
  • ‡ = Partner data that is not subject to review by the National Climate Archives
Date modified: